Other Public Products
Issued by NWS Grand Forks, ND

Home | Current Version | Previous Version | Text Only | Print | Product List | Glossary Off
Versions: 1 2 3 4 5 6 7 8 9 10 11 12 13 14 15 16 17 18 19 20 21 22 23 24 25 26 27 28 29 30 31 32 33 34 35 36 37 38 39 40 41 42 43 44 45 46 47 48 49 50

000
FPUS83 KFGF 030631
OPUFGF
PRAIRIE TO PINES WEATHER ROUNDUP
NATIONAL WEATHER SERVICE EASTERN NORTH DAKOTA/GRAND FORKS ND
1200 AM CST SAT DEC 03 2016

 **SATELLITE DATA USED TO AUGMENT SKY COVER AT AUTOMATED STATIONS**
 *****  WEATHER ACROSS EASTERN NORTH DAKOTA  *****

CITY           SKY/WX    TMP DP  RH WIND       PRES   REMARKS
GRAND FORKS    CLOUDY    30  21  69 SW8       30.25S WCI  22
6HR MIN TEMP:  30; 6HR MAX TEMP:  32;

GRAND FORKS AF CLOUDY    29  20  70 SW7       30.25R WCI  22
GRAND CITY NWS   N/A     30 N/A N/A SW3         N/A
BUXTON           N/A     43  36  75 S5          N/A
DEVILS LAKE    CLOUDY    25  20  81 S12       30.19  WCI  14
6HR MIN TEMP:  25; 6HR MAX TEMP:  27; 6HR PCP: TRACE;

FARGO          CLOUDY    27  18  69 SW7       30.28F WCI  19
6HR MIN TEMP:  27; 6HR MAX TEMP:  30;

WAHPETON ARPT  CLOUDY    27  19  74 S7        30.30F WCI  19
$$

 *****  WEATHER ACROSS CENTRAL AND WESTERN NORTH DAKOTA  *****

CITY           SKY/WX    TMP DP  RH WIND       PRES   REMARKS
JAMESTOWN      CLOUDY    23  19  85 S8        30.21F WCI  14
6HR MIN TEMP:  20; 6HR MAX TEMP:  25;

BISMARCK       CLOUDY    24  22  91 SE6       30.16F WCI  17
6HR MIN TEMP:  15; 6HR MAX TEMP:  26;

MINOT          CLEAR     26  23  88 SE8       30.08F WCI  18
6HR MIN TEMP:  26; 6HR MAX TEMP:  30;

MINOT AFB      CLEAR     23  21  91 S14       30.07F WCI  11
6HR MIN TEMP:  23; 6HR MAX TEMP:  29;

GARRISON         N/A     27  25  92 S12       30.10F WCI  17
6HR MIN TEMP:  24; 6HR MAX TEMP:  29;

WILLISTON      CLEAR     23  20  88 S5        30.02F WCI  17
6HR MIN TEMP:  21; 6HR MAX TEMP:  30;

DICKINSON      CLEAR     16  14  92 S10       30.04F WCI   4
6HR MIN TEMP:  16; 6HR MAX TEMP:  29;

HETTINGER      CLEAR     19  17  92 SE6       30.10F WCI  11
6HR MIN TEMP:  18; 6HR MAX TEMP:  28;

$$

 *****  OTHER OBSERVATIONS NORTHEAST NORTH DAKOTA  *****

CITY           SKY/WX    TMP DP  RH WIND       PRES   REMARKS
WALHALLA       MIX PCPN  28  28 100 SW5       30.22S WCI  23
LANGDON        CLOUDY    27  23  86 S12       30.17F WCI  16
CAVALIER       MIX PCPN  30  25  80 SW7       30.22F WCI  23
GRAFTON        CLOUDY    30  25  80 S8        30.25S WCI  23
CANDO          CLOUDY    25  23  93 S13       30.18F WCI  13
FORT TOTTEN      N/A     23  20  87 S7        29.95S WCI  15
ROLLA          CLOUDY    23  23 100 S13       30.12F WCI  11
RUGBY            N/A     25  23  93 S12       30.13F WCI  14
 ***** THE ABOVE OBSERVATIONS ARE NON NWS ARE NOT QUALITY
        CONTROLLED AND MAY MIS-REPORT RAIN FOR SNOW...
$$

 *****  OTHER OBSERVATIONS SOUTHEAST NORTH DAKOTA *****

CITY           SKY/WX    TMP DP  RH WIND       PRES   REMARKS
COOPERSTOWN    FAIR      21  19  93 S7        30.22F WCI  13
VALLEY CITY    FAIR      19  19 100 S7        30.25F WCI  10
OAKES          NOT AVBL
GWINNER        CLOUDY    28  23  80 S8        30.27S WCI  20
SHEYENNE NWR     N/A     26  18  72 SW2       29.95S
BUFFALO          N/A     26  16  65 S8          N/A  WCI  17
WYNDMERE         N/A     27  19  74 S2          N/A
 ***** THE ABOVE OBSERVATIONS ARE NON NWS ARE NOT QUALITY
       CONTROLLED AND MAY MIS-REPORT RAIN FOR SNOW...
$$

  *****  WEATHER ACROSS NORTHERN MINNESOTA  *****

CITY           SKY/WX    TMP DP  RH WIND       PRES   REMARKS
FLAG ISLAND    CLOUDY    23  21  93 W5        30.23S WCI  17
WARROAD        CLOUDY    25  19  80 NW5       30.25S WCI  19
ROSEAU         CLOUDY    25  21  86 CALM      30.24S
HALLOCK        CLOUDY    30  27  86 SE6       30.23S WCI  24
THF RVR FALLS    N/A     28  21  74 SW8       30.25S WCI  20
6HR MIN TEMP:  27; 6HR MAX TEMP:  28;

HALSTAD          N/A     27  19  72 SW6         N/A  WCI  21
FOSSTON        CLOUDY    25  19  80 SW6       30.26S WCI  18
BAUDETTE       CLOUDY    23  20  88 S5        30.24S WCI  17
6HR MIN TEMP:  23; 6HR MAX TEMP:  24;

WASKISH        CLOUDY    25  21  86 W6        30.25R WCI  18
CROOKSTON      CLOUDY    28  21  74 S7        30.27S WCI  21
$$
  *****  WEATHER ACROSS CENTRAL AND WEST MINNESOTA  *****

CITY           SKY/WX    TMP DP  RH WIND       PRES   REMARKS
BEMIDJI        CLOUDY    25  19  80 CALM      30.25S
PARK RAPIDS    CLOUDY    25  16  68 W5        30.26R WCI  19
6HR MIN TEMP:  25; 6HR MAX TEMP:  26;

WADENA         CLOUDY    25  18  74 NW7       30.27S WCI  17
DETROIT LAKES  CLOUDY    28  21  74 CALM      30.26F
MOORHEAD       CLOUDY    27  18  69 S3        30.29F
FERGUS FALLS   CLOUDY    25  18  74 W3        30.33S
ELBOW LAKE     CLOUDY    25  20  81 CALM      30.29S
MORRIS MN      CLOUDY    27  21  80 W3        30.29S
STAPLES        CLOUDY    25  19  80 W3        30.28R
WHEATON        CLOUDY   N/A N/A N/A CALM      30.32S
$$
  *****  WEATHER ELSEWHERE ACROSS MINNESOTA  *****

CITY           SKY/WX    TMP DP  RH WIND       PRES   REMARKS
DULUTH         CLOUDY    27  23  85 NW8       30.23S WCI  19
6HR MIN TEMP:  27; 6HR MAX TEMP:  29;

INTRNTL FALLS  CLOUDY    23  19  85 W6        30.25  WCI  16
6HR MIN TEMP:  23; 6HR MAX TEMP:  24;

ELY            CLOUDY    25  25 100 W5        30.22S WCI  19
CLOQUET        CLOUDY    27  21  80 NW5       30.25S WCI  21
BRAINERD       CLOUDY    25  21  85 W8        30.28S WCI  16
6HR MIN TEMP:  25; 6HR MAX TEMP:  26;

HIBBING        CLOUDY    24  22  91 NW6       30.24S WCI  17
6HR MIN TEMP:  24; 6HR MAX TEMP:  25;

ALEXANDRIA     CLOUDY    25  19  78 W7        30.28S WCI  17
6HR MIN TEMP:  25; 6HR MAX TEMP:  26;

SAINT CLOUD    CLOUDY    28  23  81 CALM      30.29S
6HR MIN TEMP:  28; 6HR MAX TEMP:  29;

MINNEAPOLIS    CLOUDY    30  23  75 SW10      30.31S WCI  21
6HR MIN TEMP:  30; 6HR MAX TEMP:  32; 6HR PCP: TRACE;

$$

  *****  WEATHER ACROSS SOUTH DAKOTA  *****

CITY           SKY/WX    TMP DP  RH WIND       PRES   REMARKS
SIOUX FALLS    CLOUDY    29  24  82 N5        30.29F WCI  24
6HR MIN TEMP:  29; 6HR MAX TEMP:  31;

BROOKINGS      NOT AVBL
WATERTOWN      CLOUDY    24  18  77 W5        30.26S WCI  18
6HR MIN TEMP:  24; 6HR MAX TEMP:  25;

HURON          CLOUDY    29  27  92 SE6       30.29F WCI  23
6HR MIN TEMP:  27; 6HR MAX TEMP:  29;

SISSETON         N/A     27  19  72 W5        30.28F WCI  22
ABERDEEN       CLOUDY    25  20  81 SE3       30.28S
6HR MIN TEMP:  21; 6HR MAX TEMP:  28;

MITCHELL       CLEAR     29  27  92 SE5       30.30F WCI  24
PIERRE         FOG       19  17  92 SE6       30.21S VSB 3/4 WCI  11
6HR MIN TEMP:  14; 6HR MAX TEMP:  29;

MOBRIDGE       PTCLDY    28  24  85 S9        30.17F WCI  19
RAPID CITY     CLEAR     20  17  88 SE5       30.12F WCI  13
6HR MIN TEMP:  20; 6HR MAX TEMP:  29;

$$

  *****  SOME WEATHER IN NEARBY STATES *****

CITY           SKY/WX    TMP DP  RH WIND       PRES   REMARKS
GLASGOW MT     CLEAR     21  18  88 S12       29.89F WCI   9
6HR MIN TEMP:  21; 6HR MAX TEMP:  28;

GREAT FALLS MT CLOUDY    30  21  69 SW25G31   29.86F WCI  16
6HR MIN TEMP:  28; 6HR MAX TEMP:  31;

CHEYENNE WY    CLOUDY    23  20  88 SW9       30.09F WCI  13
6HR MIN TEMP:  23; 6HR MAX TEMP:  25; 6HR PCP: TRACE;

SCOTTSBLUFF NE NOT AVBL
OMAHA NE       MOCLDY    28  22  78 CALM      30.34S
6HR MIN TEMP:  27; 6HR MAX TEMP:  37;

DES MOINES IA  CLOUDY    37  29  72 CALM      30.34S
6HR MIN TEMP:  37; 6HR MAX TEMP:  38;

DAVENPORT IA   CLOUDY    32  26  78 N8        30.34R WCI  25
6HR MIN TEMP:  32; 6HR MAX TEMP:  34;

CHICAGO IL     CLOUDY    34  23  64 W7        30.30F
6HR MIN TEMP:  34; 6HR MAX TEMP:  37;

EAU CLAIRE WI  CLOUDY    31  25  78 W5        30.29S
6HR MIN TEMP:  31; 6HR MAX TEMP:  32;

LA CROSSE WI   CLOUDY    33  21  61 W6        30.32S
6HR MIN TEMP:  33; 6HR MAX TEMP:  35;

$$

  *****  SOME NATIONAL WEATHER *****

CITY           SKY/WX    TMP DP  RH WIND       PRES   REMARKS
LA GUARDIA NY  CLOUDY    46  30  53 W14G22    29.90F
6HR MIN TEMP:  46; 6HR MAX TEMP:  49;

RALEIGH NC     MOCLDY    45  30  55 VRB6      30.19S              C1F1C2F2C3F3C4F4C5F5C6F6C7F7C8F8C9F9CaFaCbFbCcFcCdFdCe!



USA.gov is the U.S. government's official web portal to all federal, state and local government web resources and services.